Вернуться в каталог

DELTA 1 DEB

LostSSO
NORAD 42081·DEBRIS·🇺🇸 United States

Запущен Dec 15, 1968 с Vandenberg Space Force Base

Loading…

Ближайшие Пролёты (ближайшие 24 часа)

TLE

УстаревшееSource: Space-Track

Эпоха: Aug 9, 2026, 14:07 UTC

1 42081U 68114H   26221.58870655 -.00000014  00000-0  23003-3 0  9999
2 42081 101.6995 165.4714 0115617 248.6359 110.2330 12.31820842509346

Отслеживайте DELTA 1 DEB в реальном времени с AllMySat

Download on the App Store